Date,TemperatureHighF,TemperatureAvgF,TemperatureLowF,DewpointHighF,DewpointAvgF,DewpointLowF,HumidityHigh,HumidityAvg,HumidityLow,PressureMaxIn,PressureMinIn,WindSpeedMaxMPH,WindSpeedAvgMPH,GustSpeedMaxMPH,PrecipitationSumIn
2013-3-1,61,45,30,26,20,14,56,38,25,0.00,40.00,29,13,45,0.00
2013-3-2,63,48,37,27,24,20,53,41,25,0.00,40.00,23,11,34,0.00
2013-3-3,55,39,29,30,24,7,90,57,37,0.00,40.00,34,8,51,0.00
2013-3-4,31,25,15,10,6,3,61,45,32,0.00,40.00,34,15,52,0.00
2013-3-5,32,20,9,18,9,3,83,66,43,0.00,40.00,8,4,11,0.00
2013-3-6,36,26,16,23,18,12,86,70,48,0.00,40.00,9,4,12,0.00
2013-3-7,57,41,29,27,19,5,80,48,13,0.00,40.00,14,7,26,0.00
2013-3-8,42,34,30,27,24,21,74,66,47,0.00,40.00,10,5,17,0.00
2013-3-9,48,40,26,11,9,7,54,28,20,0.00,40.00,24,12,35,0.00
2013-3-10,60,40,21,18,13,8,78,42,15,0.00,40.00,18,8,29,0.00
2013-3-11,49,40,32,21,16,8,47,38,19,0.00,40.00,23,12,34,0.00
2013-3-12,50,36,24,24,17,11,84,52,23,0.00,40.00,14,5,19,0.00
2013-3-13,69,51,32,25,20,18,60,34,17,0.00,40.00,26,13,40,0.00
2013-3-14,69,54,37,30,25,20,62,36,19,0.00,40.00,24,7,34,0.00
2013-3-15,65,53,38,29,24,20,57,34,18,0.00,40.00,29,14,42,0.00
2013-3-16,51,37,27,26,23,21,85,60,32,0.00,40.00,16,7,21,0.00
2013-3-17,42,34,25,29,16,3,84,52,19,0.00,40.00,33,13,52,0.00
2013-3-18,44,30,15,14,8,3,72,42,18,0.00,40.00,26,9,47,0.00
2013-3-19,39,31,25,22,15,11,87,55,34,0.00,40.00,17,7,22,0.00
2013-3-20,59,36,18,17,15,13,81,47,19,0.00,40.00,13,5,20,0.00
2013-3-21,48,41,34,32,15,2,82,39,18,0.00,40.00,21,10,34,0.00
2013-3-22,36,28,21,26,13,3,88,56,26,0.00,40.00,16,9,24,0.00
2013-3-23,34,25,17,14,5,-3,74,46,20,0.00,40.00,18,8,23,0.00
2013-3-24,34,23,9,11,6,1,83,51,24,0.00,40.00,14,5,24,0.00
2013-3-25,49,30,10,11,6,1,83,44,16,0.00,40.00,16,4,20,0.00
2013-3-26,54,39,23,16,12,2,56,34,20,0.00,40.00,15,5,18,0.00
2013-3-27,64,44,23,22,16,9,68,36,17,0.00,40.00,12,5,17,0.00
2013-3-28,67,50,32,27,22,17,64,37,20,0.00,40.00,14,6,17,0.00
2013-3-29,66,50,40,39,28,20,74,44,27,0.00,40.00,17,9,33,0.00
2013-3-30,60,51,42,39,25,-100,77,41,20,0.00,40.00,23,10,39,0.00
2013-3-31,59,45,32,27,21,14,63,40,25,0.00,40.00,24,11,34,0.00